Wind_Speed
10 11 11 11 10 10 9 9 8 7 7 6 5 5 4 4 4 4 4 3 3 4 5 6 6 6 6 6 7 8 8 9 8 8 8 8 8 8 8 8 7 7 7
11 10 10 10 10 9 9 8 8 7 7 6 6 5 4 4 4 5 4 4 4 4 5 5 5 6 6 6 7 8 8 9 8 8 8 8 8 8 8 8 8 8 8
11 10 10 10 9 9 8 8 8 8 7 6 6 5 5 5 5 5 5 4 4 5 5 5 6 6 6 7 7 8 8 8 9 8 8 9 9 9 9 9 9 8 9
11 10 10 10 10 9 8 8 8 7 7 6 6 5 5 5 5 5 5 5 5 5 5 6 6 6 7 7 8 8 8 8 8 8 8 8 9 10 10 10 9 9 8
11 10 10 10 10 9 9 8 8 7 7 7 6 6 6 5 5 5 5 6 6 6 6 6 7 7 7 7 8 8 9 8 8 9 9 9 9 10 10 9 9 8 8
11 11 10 10 9 9 9 8 8 7 7 7 6 6 6 6 6 5 6 6 6 5 6 6 6 7 7 8 8 8 9 8 8 8 8 9 9 9 9 9 9 9 8
11 11 10 10 10 9 9 9 8 7 6 7 7 7 7 7 6 6 6 5 4 4 4 5 5 6 7 7 8 8 9 9 8 8 8 8 8 8 8 8 9 9 8
11 11 10 10 10 10 9 8 8 7 7 7 7 7 7 7 6 6 6 4 3 3 4 4 4 5 5 6 7 7 7 7 7 8 8 8 8 7 8 8 9 8 7
11 10 10 10 10 10 9 9 8 7 7 7 7 7 7 6 6 5 5 4 4 4 3 4 4 4 4 5 5 5 6 7 7 8 7 7 8 8 8 8 8 8 8
11 10 10 10 9 9 9 9 8 8 7 8 7 7 6 6 6 5 5 4 4 4 4 4 5 4 4 4 4 4 5 6 6 6 7 7 6 7 8 9 8 8 8
10 10 10 10 9 9 9 9 9 8 8 8 8 7 6 6 6 5 4 4 4 4 4 4 5 4 4 4 4 4 4 3 4 5 5 6 6 6 8 9 8 8 8
9 9 9 9 10 10 10 9 9 9 8 8 8 7 7 7 6 5 4 4 4 4 4 4 4 4 4 4 4 4 4 4 4 3 3 4 5 7 7 8 8 8 8
9 9 9 9 9 10 10 10 9 9 8 8 8 7 7 6 5 5 4 4 4 4 4 4 4 4 4 4 4 4 3 3 3 3 4 4 4 6 7 7 7 7 7
9 8 9 9 9 9 10 10 9 9 8 8 8 7 7 6 5 5 5 4 4 4 4 4 4 4 4 4 4 3 3 3 3 3 4 4 4 5 5 6 6 7 7
8 9 9 9 9 9 10 10 10 10 9 9 8 8 7 6 6 5 5 5 5 4 4 4 5 5 5 4 4 4 4 5 5 4 3 3 4 5 6 6 6 7 7
9 9 10 11 10 10 10 10 10 10 10 9 8 8 7 7 6 5 5 5 5 5 4 4 5 5 5 4 4 5 5 6 5 4 4 3 4 4 5 6 6 6 7
9 10 11 12 11 10 11 11 11 11 11 9 8 8 7 7 7 6 5 5 5 5 5 5 5 5 5 5 5 5 4 5 5 4 4 5 5 6 5 6 6 6 5
10 10 11 11 11 11 11 11 11 11 11 10 9 8 7 7 6 6 5 5 5 5 5 6 5 4 4 5 5 5 4 4 4 5 5 6 6 6 6 6 6 6 5
11 10 10 11 11 11 11 11 11 11 11 11 10 8 8 8 7 7 6 5 6 6 6 5 5 4 4 5 5 4 3 3 3 4 5 6 6 7 6 6 5 5 6
11 10 10 11 11 11 11 11 11 11 11 10 10 9 9 9 8 7 7 6 6 6 6 5 5 5 4 4 4 4 4 4 4 4 4 5 6 6 7 7 6 6 7
11 10 10 10 11 11 11 11 11 10 10 10 10 9 9 9 8 8 8 7 7 7 6 6 6 5 5 5 5 5 5 5 5 5 5 5 6 7 7 7 7 7 7
12 11 11 11 11 10 11 11 10 10 10 10 10 9 9 8 8 8 8 7 7 7 6 6 6 6 6 6 6 6 6 6 6 6 6 7 7 8 7 7 7 7 6
11 11 11 11 11 11 11 11 11 10 10 10 10 10 9 8 8 8 8 7 7 6 6 6 7 6 6 7 7 7 7 7 6 6 7 7 7 8 8 8 7 7 7
11 11 11 11 11 11 12 11 11 10 10 10 10 10 9 9 8 8 8 8 7 7 6 7 7 6 7 7 7 6 6 6 6 6 7 7 8 8 8 7 8 8 8
12 12 12 12 12 12 12 11 11 11 10 10 10 10 9 9 9 9 8 7 8 7 7 7 7 7 7 7 7 7 7 7 7 7 8 8 9 9 9 8 8 8 7
13 13 14 14 14 13 12 11 11 11 11 11 10 10 10 9 9 9 9 8 7 8 8 7 7 8 8 9 8 7 8 8 8 7 7 7 8 8 8 7 8 8 8
Wind_Direction
19 19 21 18 17 17 15 11 8 5 1 353 342 332 324 315 306 302 296 286 279 278 275 268 262 259 250 248 245 241 235 233 233 235 234 234 236 236 240 237 231 228 229
16 17 18 16 14 14 12 7 6 3 358 352 344 335 323 312 303 298 293 289 284 277 278 271 262 259 255 251 248 247 241 240 240 240 240 238 237 238 234 227 230 235 232
14 14 13 13 11 10 8 3 359 358 355 351 345 338 327 316 308 300 293 287 282 279 279 279 268 260 256 253 252 250 249 247 244 243 242 237 234 234 229 229 235 243 241
13 13 10 9 9 7 3 357 355 355 353 351 349 342 334 322 313 307 296 291 284 283 286 280 271 263 259 256 255 254 254 253 249 246 243 238 234 234 232 232 238 240 245
12 10 7 5 3 1 358 356 353 351 351 350 347 342 336 325 317 311 303 294 287 285 286 283 274 266 262 262 260 257 258 256 251 246 242 236 232 229 231 234 234 237 240
9 8 5 2 0 358 355 356 355 351 350 350 345 340 337 330 327 323 311 302 287 280 284 286 278 269 266 266 264 262 262 259 252 245 241 238 236 235 237 235 235 236 237
3 5 3 3 1 359 359 360 359 355 350 347 344 340 337 333 331 332 329 324 296 277 282 287 280 268 266 266 263 263 265 261 254 247 242 237 235 235 231 229 231 232 236
0 4 4 4 1 359 359 -0 358 356 351 349 345 342 340 334 330 333 335 329 313 294 285 287 288 268 261 266 263 262 262 261 256 253 244 238 236 236 231 228 231 237 239
1 4 6 5 2 1 359 356 354 352 349 346 344 341 342 338 333 330 335 326 312 301 287 284 291 278 277 275 263 260 264 265 257 255 246 241 239 239 234 229 229 231 237
358 2 3 3 2 0 357 354 351 347 345 343 341 339 336 335 336 332 331 322 313 301 290 288 285 278 282 287 273 266 259 259 259 250 248 247 242 239 232 227 226 231 238
355 357 358 358 359 358 356 352 350 348 345 343 338 336 334 334 335 332 330 327 320 309 301 294 288 293 294 288 276 275 266 264 254 248 248 250 243 239 233 228 234 237 239
354 356 354 354 357 356 353 349 345 346 347 343 337 332 331 332 332 330 323 323 325 321 309 295 288 295 300 294 278 268 261 263 274 251 234 236 237 238 241 236 238 243 241
350 351 350 353 354 354 352 349 346 345 345 340 337 333 331 329 326 322 320 326 328 324 316 310 301 307 309 306 295 284 274 274 264 257 248 246 240 242 253 246 243 247 247
345 346 346 346 348 352 351 350 346 344 342 340 336 331 330 330 322 320 321 324 325 325 323 319 311 300 298 300 300 294 283 265 262 251 244 250 253 253 257 252 245 243 246
336 341 343 343 347 347 347 348 346 342 338 338 338 335 329 323 320 319 318 319 320 319 317 316 314 305 299 295 286 273 270 272 268 266 262 257 246 248 245 250 247 240 243
330 336 340 341 342 341 340 343 343 340 339 337 336 332 325 319 314 311 310 312 317 315 310 317 317 313 304 298 284 277 276 273 268 271 270 274 263 248 239 251 260 255 245
328 330 333 338 336 336 338 338 338 336 335 336 334 331 327 323 318 313 311 311 314 315 318 320 317 314 311 312 301 297 290 275 264 266 267 264 261 256 259 259 260 257 252
324 325 328 333 333 332 333 332 330 329 329 332 332 325 321 322 318 316 314 311 318 317 316 319 320 309 312 312 308 303 290 280 261 257 259 260 260 262 267 273 271 261 257
318 317 322 327 329 330 331 332 327 325 324 325 325 320 315 314 314 310 310 312 315 321 323 322 332 329 322 318 313 305 296 291 278 267 261 262 262 261 267 281 282 267 261
315 315 319 324 327 327 327 329 327 322 322 320 319 316 312 310 307 303 302 306 312 319 320 320 322 323 324 322 323 324 316 311 301 289 276 272 270 265 267 273 276 271 264
312 313 314 318 321 322 322 323 324 322 320 317 314 313 309 309 308 305 298 298 306 314 315 313 315 314 314 310 311 316 311 309 300 292 293 287 283 281 272 271 270 271 268
306 309 312 316 317 318 319 318 319 319 318 315 309 305 301 306 311 312 304 299 302 309 314 313 309 312 308 304 302 302 299 299 297 289 283 285 285 286 277 273 268 266 265
300 304 309 312 314 315 316 315 316 317 317 317 314 309 302 301 303 305 302 300 296 301 308 311 311 309 306 307 305 299 294 295 295 289 281 281 283 282 274 268 263 255 261
295 299 305 309 311 311 313 314 312 311 312 312 312 308 301 297 295 297 300 299 296 298 300 304 305 304 304 306 306 298 297 301 298 290 285 280 280 278 272 262 256 254 263
294 295 301 304 305 305 305 307 306 304 304 304 306 304 298 292 291 291 289 292 295 295 293 297 300 299 299 300 297 295 297 297 294 290 289 283 278 274 269 268 264 260 262
289 290 294 296 299 299 298 298 299 296 295 296 300 299 296 290 287 288 284 284 288 292 291 291 296 300 296 296 294 293 296 298 296 296 294 288 278 272 268 269 267 265 265
Height
5897 5895 5894 5892 5891 5890 5889 5888 5887 5886 5885 5884 5883 5883 5882 5882 5882 5881 5880 5880 5880 5880 5879 5878 5878 5878 5878 5878 5878 5878 5878 5878 5878 5878 5878 5879 5879 5879 5879 5880 5880 5880 5881
5897 5895 5894 5893 5892 5891 5890 5889 5887 5886 5885 5884 5883 5883 5882 5882 5881 5881 5880 5880 5879 5879 5878 5878 5877 5877 5877 5877 5877 5877 5876 5876 5877 5877 5877 5878 5878 5878 5878 5878 5879 5879 5880
5897 5896 5894 5893 5892 5891 5890 5889 5887 5886 5885 5884 5883 5882 5882 5881 5881 5880 5879 5879 5878 5878 5877 5877 5876 5876 5876 5876 5876 5875 5875 5875 5875 5876 5876 5876 5876 5876 5877 5877 5878 5878 5878
5897 5896 5895 5893 5892 5891 5890 5888 5887 5886 5885 5884 5883 5882 5881 5880 5880 5879 5878 5878 5877 5877 5876 5876 5875 5875 5875 5874 5874 5874 5874 5874 5874 5874 5875 5875 5875 5875 5875 5876 5876 5877 5877
5898 5897 5895 5894 5892 5891 5890 5888 5887 5886 5885 5884 5883 5882 5881 5880 5879 5878 5877 5876 5876 5875 5875 5875 5874 5874 5873 5873 5873 5873 5872 5873 5873 5873 5873 5873 5873 5873 5874 5874 5875 5875 5876
5898 5897 5895 5894 5892 5891 5890 5888 5887 5886 5885 5883 5883 5882 5881 5880 5879 5878 5876 5874 5873 5874 5874 5873 5873 5873 5872 5872 5871 5871 5871 5871 5871 5872 5872 5872 5872 5872 5873 5873 5873 5874 5874
5899 5897 5896 5894 5893 5891 5890 5888 5887 5886 5885 5884 5882 5881 5880 5879 5878 5877 5875 5871 5871 5872 5873 5872 5872 5871 5871 5871 5870 5870 5869 5869 5869 5870 5870 5870 5870 5871 5871 5872 5872 5873 5873
5899 5897 5896 5894 5893 5891 5890 5888 5887 5886 5884 5883 5882 5881 5880 5879 5878 5877 5875 5873 5872 5872 5872 5871 5871 5870 5870 5869 5869 5868 5868 5868 5868 5868 5868 5869 5869 5869 5869 5870 5871 5871 5872
5899 5897 5896 5894 5893 5891 5890 5888 5887 5885 5884 5883 5882 5880 5879 5878 5877 5876 5875 5874 5873 5872 5871 5871 5870 5869 5869 5868 5868 5867 5867 5866 5867 5866 5867 5867 5867 5868 5868 5869 5869 5870 5870
5898 5897 5896 5894 5893 5891 5889 5888 5886 5885 5883 5882 5881 5880 5878 5877 5876 5875 5874 5873 5872 5872 5871 5870 5869 5868 5868 5867 5867 5866 5865 5865 5865 5865 5866 5866 5866 5866 5867 5867 5867 5868 5869
5898 5897 5895 5894 5892 5891 5889 5887 5886 5884 5883 5881 5880 5879 5878 5877 5875 5874 5873 5872 5872 5871 5870 5869 5868 5867 5867 5867 5866 5865 5864 5864 5864 5864 5864 5864 5864 5865 5866 5866 5866 5866 5867
5898 5896 5895 5893 5892 5890 5888 5887 5885 5884 5882 5881 5880 5878 5877 5876 5875 5874 5873 5872 5871 5870 5869 5868 5868 5867 5866 5866 5865 5864 5864 5863 5863 5863 5862 5862 5862 5863 5864 5864 5865 5865 5865
5897 5896 5894 5893 5891 5890 5888 5886 5884 5883 5882 5880 5879 5878 5877 5875 5874 5873 5872 5871 5870 5869 5868 5868 5867 5866 5866 5865 5864 5863 5863 5863 5862 5862 5862 5862 5862 5862 5862 5862 5863 5863 5864
5897 5895 5894 5892 5891 5889 5887 5885 5884 5882 5881 5880 5878 5877 5876 5875 5873 5872 5871 5870 5869 5869 5868 5867 5867 5866 5865 5864 5863 5863 5862 5862 5862 5861 5861 5861 5861 5861 5861 5861 5861 5862 5862
5896 5895 5893 5891 5890 5888 5887 5885 5883 5882 5880 5879 5877 5876 5875 5874 5873 5871 5870 5869 5868 5868 5867 5866 5866 5865 5864 5863 5862 5862 5861 5861 5861 5860 5860 5860 5860 5860 5860 5860 5860 5860 5861
5894 5893 5892 5890 5889 5887 5886 5884 5882 5881 5880 5878 5877 5875 5874 5873 5872 5870 5869 5868 5868 5867 5866 5865 5865 5864 5863 5862 5861 5860 5860 5859 5859 5859 5859 5859 5859 5859 5858 5858 5858 5859 5859
5893 5891 5890 5889 5887 5886 5885 5883 5881 5880 5878 5877 5875 5874 5873 5872 5870 5869 5868 5867 5867 5866 5865 5864 5863 5862 5862 5861 5860 5859 5859 5858 5858 5858 5858 5858 5858 5858 5857 5857 5857 5857 5857
5891 5890 5889 5888 5886 5885 5883 5881 5880 5878 5877 5875 5874 5873 5872 5870 5869 5868 5867 5866 5866 5865 5864 5863 5862 5861 5860 5860 5859 5858 5857 5857 5857 5857 5857 5857 5857 5857 5857 5856 5856 5856 5857
5889 5888 5888 5886 5885 5883 5881 5880 5878 5876 5875 5874 5872 5871 5870 5869 5868 5867 5866 5865 5864 5864 5862 5862 5861 5860 5859 5858 5857 5857 5856 5856 5856 5856 5856 5856 5856 5855 5855 5855 5855 5855 5855
5887 5886 5886 5884 5883 5881 5880 5878 5876 5875 5873 5872 5870 5869 5868 5867 5866 5865 5864 5864 5863 5862 5861 5861 5860 5859 5858 5857 5856 5856 5855 5855 5855 5855 5855 5855 5854 5854 5854 5854 5854 5854 5854
5885 5885 5884 5882 5881 5879 5878 5876 5874 5873 5871 5870 5868 5867 5866 5865 5864 5863 5863 5862 5862 5861 5860 5860 5859 5858 5857 5856 5856 5855 5855 5854 5854 5853 5853 5853 5853 5853 5853 5853 5853 5853 5853
5883 5882 5881 5880 5879 5877 5876 5874 5872 5871 5869 5868 5866 5865 5864 5863 5862 5862 5861 5860 5860 5859 5859 5858 5857 5856 5856 5855 5854 5854 5853 5853 5852 5852 5852 5852 5852 5852 5851 5851 5851 5851 5851
5880 5879 5879 5877 5876 5875 5873 5872 5870 5869 5867 5866 5864 5863 5862 5861 5860 5860 5859 5858 5858 5858 5857 5856 5856 5855 5854 5853 5853 5852 5852 5851 5851 5850 5850 5850 5850 5849 5849 5849 5849 5849 5849
5877 5877 5876 5875 5874 5872 5871 5869 5868 5866 5865 5864 5862 5861 5860 5858 5858 5857 5857 5856 5856 5856 5855 5855 5854 5853 5852 5852 5851 5850 5850 5850 5849 5848 5848 5847 5847 5847 5847 5847 5847 5847 5847
5875 5874 5873 5872 5871 5870 5868 5866 5865 5864 5863 5861 5860 5858 5857 5856 5856 5855 5854 5854 5854 5853 5853 5852 5852 5851 5850 5850 5849 5849 5848 5848 5847 5846 5846 5845 5845 5844 5844 5845 5844 5844 5844
5871 5871 5870 5869 5868 5866 5865 5863 5862 5861 5860 5858 5857 5856 5854 5854 5853 5853 5852 5852 5851 5851 5850 5850 5850 5849 5848 5848 5847 5846 5846 5846 5845 5844 5843 5843 5842 5842 5842 5842 5842 5842 5842